Tracking 29799 objects as of 11-Oct-2024
HD Live streaming from Space Station
objects crossing your sky now

OPS 1294 (DMSP 5D-2 F7)

Track OPS 1294 (DMSP 5D-2 F7) now!
10-day predictions
OPS 1294 (DMSP 5D-2 F7) is classified as:


NORAD ID: 14506
Int'l Code: 1983-113A
Perigee: 794.5 km
Apogee: 808.8 km
Inclination: 98.3 °
Period: 100.8 minutes
Semi major axis: 7172 km
RCS: 4.7791 m2 (large)
Launch date: November 18, 1983
Source: United States (US)
Launch site: AIR FORCE WESTERN TEST RANGE (AFWTR)
Your satellite tracking list
Your tracking list is empty




NASA's NSSDC Master Catalog

Two Line Element Set (TLE):
1 14506U 83113A   24284.90141668  .00002669  00000-0  10674-2 0  9990
2 14506  98.3451  82.2727 0009974 243.0819 240.9639 14.29167036127723
Source of the keplerian elements: AFSPC